User: anonymous   Login
Location: Carrières
(48.9495°N, 2.0407°E)
Time: 16:52:05
(UTC+00:00)
Language:

Tiros 1 despin weight - Orbit

View from above orbital plane
View from above orbital plane
View from above satellite
View from above satellite

Ground track
Ground track

The orbit data is extracted from the following two-line orbital elements,

1 00115U 60002D   24113.68404100  .00008208  00000-0  87757-3 0  9994
2 00115  48.1649 341.8393 0031140 335.9662  23.9798 14.89027587400660
Epoch (UTC): 22 April 2024 16:25:01
Eccentricity: 0.0031140
inclination: 48.1649°
perigee height: 579 km
apogee height: 623 km
right ascension of ascending node: 341.8393°
argument of perigee: 335.9662°
revolutions per day: 14.89027587
mean anomaly at epoch: 23.9798°
orbit number at epoch: 40066

The dashed part of the orbit path shows where the satellite is in the earth's shadow,  

DLR